Location: *
(47.4500°N, 19.7000°E)
Time: 17:32:11
(UTC+00:00)

Daily predictions for brighter satellites

Satellite Brightness Start Highest point End
(mag) Time Altitude Azimuth Time Altitude Azimuth Time Altitude Azimuth
STARLINK-1114 3.7 17:40:24 10° WNW 17:44:32 77° SSW 17:48:41 10° SE
STARLINK-1216 4.4 17:41:20 10° W 17:45:23 51° NNW 17:49:27 10° ENE
SL-14 R/B 3.5 17:43:22 10° NNW 17:47:26 79° W 17:51:26 10° S
MOS 1 4.5 17:42:10 10° SE 17:47:38 54° ENE 17:53:09 10° N
CZ-2C R/B 3.2 17:43:23 10° SE 17:48:09 50° ENE 17:52:46 10° N
STARLINK-1130 (DARKSAT) 3.8 17:45:21 10° WNW 17:49:30 72° SSW 17:53:37 10° SE
STARLINK-1237 4.5 17:46:21 10° W 17:50:23 50° NNW 17:54:26 10° ENE
CZ-2C R/B 3.9 17:50:21 10° NE 17:53:52 18° E 17:57:23 10° SE
Cosmos 1758 3.4 17:50:01 10° S 17:54:02 62° E 17:58:06 10° NNE
STARLINK-1084 3.9 17:50:21 10° WNW 17:54:28 67° SSW 17:58:34 10° SE
Meteor 1-21 Rocket 4.4 17:49:09 10° N 17:54:34 50° ENE 17:59:56 10° SSE
Cosmos 1992 Rocket 4.2 17:51:58 10° NNW 17:57:07 55° ENE 18:02:12 10° SE
Cosmos 2228 4.4 17:55:26 10° SE 17:58:28 19° E 18:01:31 10° NE
Cosmos 2084 Rocket 3.6 17:54:08 10° NW 17:58:38 81° SW 18:03:06 10° SE
STARLINK-1098 3.9 17:55:21 10° WNW 17:59:27 63° SW 18:03:32 10° SE
COSMOS 2455 4.5 17:55:35 10° NNW 18:00:05 21° NNE 18:04:34 10° E
CZ-4 R/B 4.1 17:57:31 10° SW 18:00:31 21° W 18:03:31 10° NW
ARGOS 3.2 17:55:25 10° SSE 18:00:44 63° ENE 18:06:04 10° N
Cosmos 1603 4.1 17:59:06 10° S 18:04:19 41° ESE 18:09:33 10° NE
STARLINK-1123 4.0 18:00:21 10° WNW 18:04:25 58° SW 18:08:26 10° SE
Meteor 2-15 4.4 18:00:41 10° S 18:06:43 81° E 18:12:49 10° NNE
SL-4 R/B 3.4 18:05:53 10° SSE 18:07:38 13° SE 18:08:04 13° SE
Cosmos 2237 Rocket 4.4 18:04:05 10° WSW 18:08:52 28° NW 18:13:41 10° N
STARLINK-1097 4.1 18:05:20 10° WNW 18:09:23 54° SW 18:13:12 11° SE
H-2A R/B 2.1 18:05:09 10° SSE 18:10:25 87° ENE 18:15:34 10° NNW
IRS-1A Rocket 4.4 18:05:06 10° SSE 18:10:47 85° WSW 18:16:39 10° NNW
Cosmos 2184 Rocket 4.2 18:06:27 10° N 18:12:37 52° ENE 18:18:40 10° SSE
Cosmos 1726 2.7 18:09:32 10° SSE 18:12:58 36° E 18:16:26 10° NNE
STARLINK-1099 4.3 18:10:20 10° WNW 18:14:21 50° SW 18:17:59 12° SE
USA 186 1.9 18:11:57 10° SSE 18:15:21 87° WSW 18:18:39 10° NNW
Resurs 1-3 4.2 18:14:00 12° SE 18:17:46 39° ENE 18:21:52 10° N
STARLINK-1104 4.4 18:15:20 10° WNW 18:19:19 46° SW 18:22:47 13° SSE
Meteor 2-10 4.3 18:16:47 10° S 18:22:01 54° E 18:27:28 10° NNE
Cosmos 292 Rocket 4.0 18:23:40 10° NNW 18:28:27 73° WSW 18:33:15 10° SSE
Cosmos 2251 Rocket 3.5 18:23:30 10° SSW 18:28:51 79° ESE 18:34:16 10° NNE
Cosmos 1703 3.8 18:25:29 10° N 18:29:14 39° ENE 18:31:28 20° SE
DMSP B5D2-2 4.4 18:24:19 10° NNE 18:29:17 42° E 18:34:13 10° SSE
Cosmos 1953 2.2 18:27:36 10° S 18:31:34 87° E 18:35:34 10° N
NOSS 3-4 (A) 4.2 18:25:29 10° NW 18:32:09 51° NE 18:37:30 19° ESE
NOSS 3-4 (C) 4.2 18:25:35 10° NW 18:32:15 51° NE 18:37:35 19° ESE
Cosmos 2154 Rocket 4.3 18:28:17 10° N 18:34:28 49° ENE 18:39:30 15° SE
Resurs 01 Rocket 2.0 18:34:55 21° SE 18:37:31 44° ENE 18:41:43 10° N
FREGAT/IRIS 4.1 18:35:34 10° SSW 18:38:03 32° W 18:40:35 10° NNW
Aureole 3 4.2 18:35:21 10° SSW 18:39:47 72° WNW 18:45:32 10° N
Cosmos 2369 Rocket 2.4 18:34:15 10° NNW 18:39:56 70° WSW 18:45:28 10° SSE
NOSS 3-3 (A) 3.9 18:35:49 10° SSW 18:41:40 79° SE 18:48:19 10° NE
NOSS 3-3 (C) 3.9 18:35:55 10° SSW 18:41:46 78° SE 18:48:25 10° NE
Nadezhda 1 Rocket 4.2 18:36:13 10° SSE 18:42:22 53° E 18:48:32 10° NNE
Cosmos 2058 Rocket 3.9 18:41:07 24° SE 18:42:40 30° E 18:46:37 10° NNE
Cosmos 1943 Rocket 3.0 18:40:33 10° NW 18:45:52 48° WSW 18:51:11 10° S
Cosmos 1437 2.6 18:42:52 10° NNW 18:45:54 80° WSW 18:47:33 24° S
SL-8 R/B 4.0 18:42:44 10° WNW 18:47:25 56° SSW 18:49:51 27° SE
CZ-2C R/B 3.7 18:43:21 10° NNE 18:48:07 82° ESE 18:52:47 10° SSW
Meteor 1-11 4.4 18:42:46 10° N 18:48:28 55° ENE 18:52:03 22° SE
Cosmos 1908 3.2 18:52:23 23° SSE 18:54:36 57° E 18:58:25 10° NNE
Cosmos 2263 4.3 18:49:40 10° NNW 18:55:17 72° WSW 18:59:31 18° SSE
SPOT 5 4.4 19:00:07 16° ENE 19:00:17 16° ENE 19:03:00 10° NNE
Aureole 2 Rocket 4.5 18:57:33 10° NW 19:00:28 25° WSW 19:03:20 10° SSW
Abrixas rocket 2.0 18:57:57 10° W 19:00:55 73° N 19:01:18 61° NE
Cosmos 1726 Rocket 3.4 18:57:24 12° S 19:01:22 71° E 19:05:48 10° NNE
Cosmos 2074 Rocket 4.3 18:55:23 10° NNW 19:01:38 71° W 19:07:53 10° S
STARLINK-67 3.9 18:59:33 10° NW 19:01:53 29° NNE 19:01:57 29° NNE
Cosmos 1190 Rocket 4.4 19:00:49 27° SSE 19:02:59 39° ESE 19:07:53 10° NE
Cosmos 1943 3.2 18:58:53 10° SSW 19:04:33 89° WNW 19:10:17 10° NNE
ATLAS 2AS CENTAUR R/B 2.9 18:57:10 10° NW 19:04:52 75° NE 19:08:47 30° SE
USA 234 3.2 18:59:05 10° ENE 19:05:32 58° SE 19:11:57 10° SW
ISS -2.0 19:03:51 10° W 19:06:32 22° SW 19:07:16 21° SSW
Cosmos 1825 Rocket 4.0 19:02:11 10° NNW 19:06:32 60° W 19:10:01 15° S
Aureole 1 Rocket 4.2 18:59:39 10° S 19:07:21 60° ESE 19:13:31 10° NNE
Spot 2 Rocket 3.8 19:06:11 34° ESE 19:07:56 49° ENE 19:12:51 10° N
SPOT 3 Rocket 4.2 19:06:51 10° S 19:11:57 55° W 19:17:05 10° NNW
Cosmos 1140 Rocket 3.9 19:11:31 38° ESE 19:12:05 40° ESE 19:16:53 10° NE
Meteor 2-17 Rocket 4.4 19:06:52 10° N 19:13:03 89° ENE 19:17:20 21° S
Cosmos 1610 Rocket 4.5 19:10:54 10° N 19:17:08 81° W 19:21:46 19° S
MetOp-B 4.1 19:15:54 37° SE 19:18:02 69° ENE 19:23:23 10° N
MOS 1 Rocket 3.7 19:17:23 10° N 19:22:42 78° WNW 19:28:08 10° SSW
Cosmos 1953 Rocket 4.1 19:21:07 10° NNW 19:25:31 57° W 19:27:53 26° SSW
CZ-4C R/B 4.5 19:21:24 10° NW 19:26:25 23° NNE 19:32:03 10° ENE
Terra 3.2 19:28:44 24° ENE 19:28:44 24° ENE 19:32:21 10° N
Cosmos 1606 Rocket 4.5 19:25:18 10° SSW 19:29:35 48° WNW 19:33:56 10° N
Cosmos 1818 3.6 19:24:36 10° SW 19:30:03 81° NW 19:35:33 10° NE
Cosmos 921 Rocket 2.9 19:28:41 10° NNW 19:32:50 66° ENE 19:32:50 66° ENE
Cosmos 614 Rocket 3.9 19:28:25 10° SSW 19:33:40 86° WNW 19:38:55 10° NNE
BREEZE M DEB (TANK) 3.1 19:26:12 10° WSW 19:34:23 63° SSE 19:34:30 63° SSE
CZ-2C R/B 2.9 19:29:31 10° N 19:34:40 66° WNW 19:39:47 10° SSW
Cosmos 407 Rocket 3.3 19:30:03 13° SSW 19:34:42 82° ESE 19:39:51 10° NNE
STARLINK-1233 4.4 19:32:05 10° NW 19:34:36 33° N 19:34:36 33° N
STARLINK-1212 4.4 19:32:33 10° NW 19:35:01 33° N 19:35:01 33° N
Cosmos 2228 4.1 19:31:35 10° SSW 19:35:40 43° WNW 19:39:50 10° N
STARLINK-1105 4.4 19:32:59 10° NW 19:35:29 33° N 19:35:29 33° N
STARLINK-1206 4.4 19:33:29 10° NW 19:35:53 32° N 19:35:53 32° N
STARLINK-1247 4.5 19:33:56 10° NW 19:36:19 32° N 19:36:19 32° N
SPOT 1/Viking Rocket 3.6 19:36:25 53° ESE 19:37:08 58° ENE 19:42:16 10° N
STARLINK-1227 4.4 19:34:20 10° NW 19:36:45 33° N 19:36:45 33° N
Cosmos 1656 Rocket 4.3 19:32:13 10° NW 19:37:42 51° WSW 19:40:14 29° S
STARLINK-1218 4.5 19:34:50 10° NW 19:37:11 32° NNW 19:37:11 32° NNW
STARLINK-1226 4.5 19:35:16 10° NW 19:37:37 32° NNW 19:37:37 32° NNW
STARLINK-1254 4.5 19:35:41 10° NW 19:38:04 33° NNW 19:38:04 33° NNW
IGS 5A 3.6 19:39:45 60° NE 19:39:45 60° NE 19:43:33 10° N
SAR-Lupe-2 4.0 19:39:01 10° N 19:42:09 60° NNW 19:42:09 60° NNW
Cosmos 2341 Rocket 4.0 19:39:48 10° N 19:46:13 89° WSW 19:48:37 42° S
SL-4 R/B 4.1 19:43:14 10° WSW 19:43:45 14° SW 19:43:45 14° SW
BREEZE-M DEB (TANK) 4.3 19:42:30 10° WNW 19:45:58 37° WSW 19:45:58 37° WSW
COSMOS 2455 2.8 19:41:03 10° NNW 19:47:06 72° NE 19:48:18 56° ESE
ERS-1 Rocket 3.1 19:47:59 56° ENE 19:48:04 56° ENE 19:53:00 10° N
Cosmos 1340 Rocket 3.3 19:47:46 51° WSW 19:48:27 60° WNW 19:52:28 10° N
Cosmos 1980 Rocket 4.3 19:47:31 10° N 19:50:15 13° NE 19:52:06 12° NE
Cosmos 1954 Rocket 4.3 19:57:47 53° ENE 19:57:47 53° ENE 20:01:58 10° NNE
Cosmos 1892 4.4 19:54:51 10° N 19:56:50 26° NNE 19:56:50 26° NNE
ATLAS CENTAUR R/B 3.9 20:04:17 10° N 20:05:52 12° NNE 20:06:08 12° NNE
Cosmos 2218 Rocket 3.8 20:00:46 10° N 20:06:59 83° E 20:07:52 68° SSE
Cosmos 1461 3.5 20:03:58 10° NW 20:07:55 61° W 20:07:55 61° W
Cosmos 1656 4.5 20:03:34 10° NNW 20:08:52 38° NE 20:08:58 37° NE
Cosmos 1076 Rocket 4.3 20:08:07 10° N 20:11:09 45° N 20:11:09 45° N
Resurs 01 Rocket 3.7 20:12:28 17° WSW 20:14:13 21° W 20:17:36 10° NW
ATLAS 5 CENTAUR R/B 4.0 20:20:51 15° NE 20:20:51 15° NE 20:21:40 10° NE
In-Cosmos 22 Rocket 4.2 20:14:03 10° NNW 20:19:55 83° W 20:20:12 79° SSW
Cosmos 2181 Rocket 4.0 20:18:41 53° SSW 20:20:15 77° W 20:26:30 10° N
Cosmos 1300 4.4 20:23:46 31° NNW 20:23:46 31° NNW 20:26:15 10° N
NOSS 3-4 (A) 4.4 20:16:27 10° NW 20:23:12 49° WSW 20:24:57 42° SSW
NOSS 3-4 (C) 4.4 20:16:33 10° NW 20:23:18 49° WSW 20:25:03 42° SSW
Meteor 2-1 Rocket 4.3 20:25:44 70° NE 20:25:44 70° NE 20:31:07 10° NNE
Cosmos 1763 Rocket 4.1 20:24:35 10° NNW 20:28:47 50° NNE 20:28:47 50° NNE
SL-8 Rocket 4.4 20:25:29 10° NNW 20:31:39 57° W 20:32:54 49° SW
SPOT 5 3.8 20:39:20 40° NW 20:39:20 40° NW 20:42:16 10° NNW
Cosmos 2366 rocket 4.2 20:35:59 10° NNW 20:42:00 59° W 20:42:31 57° WSW
USA 234 3.7 20:42:10 10° NE 20:48:35 59° NNW 20:54:58 10° WSW
Nadezhda 3 Rocket 4.4 20:52:27 54° NE 20:52:27 54° NE 20:57:27 10° NNE
ATLAS 2AS CENTAUR R/B 4.0 20:49:00 10° NW 20:55:10 29° WSW 20:56:14 28° SW
BREEZE M DEB (TANK) 3.8 21:02:08 69° WSW 21:03:03 89° S 21:20:07 10° ENE
Terra 3.3 21:07:37 34° NW 21:07:37 34° NW 21:10:40 10° NNW
Cosmos 1697 Rocket 3.5 21:02:41 10° NNW 21:06:58 46° N 21:06:58 46° N
Mayak 1.3 21:12:19 10° N 21:13:22 17° N 21:13:22 17° N
CZ-4C R/B 3.5 21:09:58 10° NW 21:16:39 48° NE 21:17:32 46° ENE
SL-16 R/B 4.2 21:14:23 10° N 21:18:13 18° NE 21:18:42 18° NE
Cosmos 1821 Rocket 4.4 21:18:30 10° NNW 21:23:55 60° NW 21:23:55 60° NW
Cosmos 2322 Rocket 4.2 21:25:47 10° N 21:29:37 18° NE 21:30:00 18° NE
Cosmos 1980 Rocket 3.3 21:30:07 10° NNW 21:33:52 39° N 21:33:52 39° N
ATLAS CENTAUR R/B 4.4 21:41:57 10° NNW 21:42:19 12° NNW 21:42:19 12° NNW
Cosmos 2082 Rocket 4.0 22:02:45 25° NE 22:02:45 25° NE 22:05:02 10° NNE
ATLAS 5 CENTAUR R/B 4.0 22:02:16 21° NNW 22:02:21 21° NNW 22:06:08 10° NNE
Cosmos 1833 Rocket 4.1 22:21:36 34° N 22:21:36 34° N 22:24:50 10° NNE
USA 234 4.4 22:25:00 10° ENE 22:30:57 39° N 22:36:54 10° WNW
SL-16 R/B 3.7 22:57:36 10° NNW 23:00:33 32° NNW 23:00:33 32° NNW
CZ-4C R/B 3.8 22:58:27 10° NW 23:02:42 38° WNW 23:02:42 38° WNW
Cosmos 2360 Rocket 3.6 23:07:04 10° NNW 23:10:44 34° NNE 23:10:44 34° NNE
Cosmos 2333 Rocket 4.2 23:09:19 10° N 23:13:41 22° NE 23:15:07 20° ENE
Cosmos 2322 Rocket 3.7 23:08:57 10° NNW 23:11:48 31° NNW 23:11:48 31° NNW
Resurs 1-4 Rocket 3.9 23:33:06 10° NE 23:36:00 24° ENE 23:36:00 24° ENE
Cosmos 2082 Rocket 3.9 23:44:34 25° NW 23:44:34 25° NW 23:48:40 10° N
CZ-2D R/B 3.6 23:45:03 10° NNE 23:48:41 32° ENE 23:48:41 32° ENE
